When you browse on this site, cookies collect data to enhance your experience and personalize the content and advertising you see.
Visit our Privacy Policy to learn more. By continuing to use the site, you agree to this use of cookies and data.
  • In Czech Republic
  • List of Countries
  • For 7 days
  • Water Temperature
  • Satellite Maps
  • Weather Map
  • Weather Widgets
  • user-avatar
    Login

    Hourly Weather Wiktoria

    Today, 14 December, Friday

    Time Temperature Precipitation Wind Pressure Humidity
    00:00 +14°C° 0 mm 4 mps 737 mmHg 81%
    01:00 +13°C° 0 mm 3 mps 737 mmHg 81%
    02:00 +13°C° 0.1 mm 3 mps 738 mmHg 81%
    03:00 +13°C° 0.1 mm 3 mps 738 mmHg 81%
    04:00 +14°C° 0 mm 1 mps 738 mmHg 84%
    05:00 +15°C° 0.1 mm 2 mps 739 mmHg 80%
    06:00 +15°C° 0.1 mm 2 mps 739 mmHg 76%
    07:00 +16°C° 0.1 mm 3 mps 740 mmHg 72%
    08:00 +18°C° 0 mm 3 mps 740 mmHg 64%
    09:00 +20°C° 0 mm 3 mps 740 mmHg 57%
    10:00 +21°C° 0 mm 5 mps 740 mmHg 49%
    11:00 +22°C° 0 mm 5 mps 740 mmHg 46%
    12:00 +23°C° 0 mm 4 mps 740 mmHg 43%
    13:00 +25°C° 0 mm 4 mps 740 mmHg 40%
    14:00 +25°C° 0 mm 4 mps 740 mmHg 39%
    15:00 +26°C° 0 mm 3 mps 740 mmHg 37%
    16:00 +26°C° 0 mm 3 mps 740 mmHg 36%
    17:00 +25°C° 0.1 mm 2 mps 740 mmHg 39%
    18:00 +25°C° 0.1 mm 1 mps 740 mmHg 42%
    19:00 +24°C° 0.1 mm 1 mps 740 mmHg 46%
    20:00 +23°C° 0 mm 1 mps 741 mmHg 48%
    21:00 +22°C° 0 mm 1 mps 741 mmHg 50%
    22:00 +20°C° 0 mm 1 mps 741 mmHg 52%
    23:00 +19°C° 0 mm 2 mps 741 mmHg 58%

    Tomorrow, 15 December, Saturday

    Time Temperature Precipitation Wind Pressure Humidity
    00:00 +18°C° 0 mm 2 mps 740 mmHg 64%
    01:00 +18°C° 0 mm 2 mps 740 mmHg 70%
    02:00 +18°C° 0 mm 2 mps 740 mmHg 74%
    03:00 +17°C° 0 mm 2 mps 740 mmHg 78%
    04:00 +17°C° 0 mm 2 mps 740 mmHg 82%
    05:00 +18°C° 0.2 mm 3 mps 740 mmHg 79%
    06:00 +20°C° 0.2 mm 3 mps 741 mmHg 75%
    07:00 +21°C° 0.2 mm 3 mps 741 mmHg 71%
    08:00 +24°C° 0.1 mm 3 mps 741 mmHg 59%
    09:00 +25°C° 0.1 mm 3 mps 741 mmHg 48%
    10:00 +27°C° 0.1 mm 3 mps 741 mmHg 36%
    11:00 +28°C° 0 mm 4 mps 741 mmHg 33%
    12:00 +29°C° 0 mm 5 mps 740 mmHg 29%
    13:00 +30°C° 0 mm 6 mps 740 mmHg 25%
    14:00 +29°C° 0 mm 6 mps 740 mmHg 26%
    15:00 +29°C° 0 mm 5 mps 740 mmHg 27%
    16:00 +29°C° 0 mm 5 mps 739 mmHg 28%
    17:00 +27°C° 0 mm 4 mps 739 mmHg 33%
    18:00 +26°C° 0 mm 3 mps 739 mmHg 38%
    19:00 +25°C° 0 mm 2 mps 740 mmHg 43%
    20:00 +23°C° 0.3 mm 2 mps 740 mmHg 47%
    21:00 +22°C° 0.3 mm 1 mps 740 mmHg 52%
    22:00 +21°C° 0.3 mm 1 mps 741 mmHg 56%
    23:00 +20°C° 0 mm 1 mps 741 mmHg 58%

    Day after tomorrow, 16 December, Sunday

    Time Temperature Precipitation Wind Pressure Humidity
    00:00 +20°C° 0 mm 1 mps 741 mmHg 59%
    01:00 +19°C° 0 mm 1 mps 741 mmHg 61%
    02:00 +19°C° 0 mm 1 mps 741 mmHg 61%
    03:00 +19°C° 0 mm 1 mps 741 mmHg 61%
    04:00 +18°C° 0 mm 2 mps 741 mmHg 61%
    05:00 +18°C° 0 mm 2 mps 741 mmHg 61%
    06:00 +19°C° 0 mm 3 mps 741 mmHg 61%
    07:00 +19°C° 0 mm 4 mps 742 mmHg 61%
    08:00 +19°C° 0.5 mm 4 mps 742 mmHg 64%
    09:00 +19°C° 0.5 mm 3 mps 742 mmHg 67%
    10:00 +19°C° 0.5 mm 3 mps 742 mmHg 70%
    11:00 +20°C° 0.2 mm 3 mps 742 mmHg 65%
    12:00 +22°C° 0.2 mm 3 mps 742 mmHg 59%
    13:00 +24°C° 0.2 mm 3 mps 742 mmHg 54%
    14:00 +25°C° 0 mm 3 mps 742 mmHg 51%
    15:00 +26°C° 0 mm 3 mps 742 mmHg 47%
    16:00 +27°C° 0 mm 4 mps 741 mmHg 44%
    17:00 +26°C° 0 mm 3 mps 742 mmHg 47%
    18:00 +25°C° 0 mm 2 mps 742 mmHg 51%
    19:00 +24°C° 0 mm 2 mps 742 mmHg 55%
    20:00 +23°C° 0 mm 1 mps 743 mmHg 57%
    21:00 +22°C° 0 mm 1 mps 743 mmHg 60%
    22:00 +21°C° 0 mm 1 mps 744 mmHg 63%
    23:00 +20°C° 0 mm 1 mps 744 mmHg 65%

    17 December, Monday

    Time Temperature Precipitation Wind Pressure Humidity
    00:00 +20°C° 0 mm 1 mps 744 mmHg 67%
    01:00 +19°C° 0 mm 1 mps 744 mmHg 69%
    02:00 +19°C° 0 mm 1 mps 744 mmHg 70%
    03:00 +19°C° 0 mm 1 mps 744 mmHg 71%
    04:00 +18°C° 0 mm 1 mps 744 mmHg 73%
    05:00 +19°C° 0 mm 1 mps 744 mmHg 69%
    06:00 +21°C° 0 mm 1 mps 745 mmHg 66%
    07:00 +22°C° 0 mm 1 mps 745 mmHg 62%
    08:00 +24°C° 0 mm 1 mps 746 mmHg 56%
    09:00 +26°C° 0 mm 1 mps 746 mmHg 49%
    10:00 +28°C° 0 mm 2 mps 746 mmHg 42%
    11:00 +29°C° 0 mm 2 mps 746 mmHg 39%
    12:00 +30°C° 0 mm 2 mps 746 mmHg 37%
    13:00 +31°C° 0 mm 3 mps 745 mmHg 34%
    14:00 +33°C° 0 mm 3 mps 745 mmHg 34%
    15:00 +33°C° 0 mm 3 mps 745 mmHg 33%
    16:00 +32°C° 0 mm 2 mps 745 mmHg 33%
    17:00 +31°C° 0 mm 2 mps 745 mmHg 37%
    18:00 +30°C° 0 mm 3 mps 746 mmHg 42%
    19:00 +29°C° 0 mm 3 mps 746 mmHg 46%
    20:00 +27°C° 0 mm 3 mps 746 mmHg 51%
    21:00 +25°C° 0 mm 4 mps 747 mmHg 56%
    22:00 +22°C° 0 mm 4 mps 747 mmHg 61%
    23:00 +21°C° 0 mm 4 mps 747 mmHg 65%

    18 December, Tuesday

    Time Temperature Precipitation Wind Pressure Humidity
    00:00 +20°C° 0 mm 4 mps 747 mmHg 69%
    01:00 +20°C° 0 mm 4 mps 747 mmHg 73%
    02:00 +19°C° 0 mm 4 mps 747 mmHg 75%
    03:00 +19°C° 0 mm 3 mps 747 mmHg 77%
    04:00 +18°C° 0 mm 3 mps 747 mmHg 79%
    05:00 +19°C° 0 mm 3 mps 747 mmHg 75%
    06:00 +20°C° 0 mm 3 mps 748 mmHg 72%
    07:00 +21°C° 0 mm 3 mps 748 mmHg 68%
    08:00 +25°C° 0 mm 2 mps 748 mmHg 59%
    09:00 +28°C° 0 mm 2 mps 748 mmHg 50%
    10:00 +31°C° 0 mm 1 mps 748 mmHg 41%
    11:00 +32°C° 0 mm 1 mps 747 mmHg 37%
    12:00 +34°C° 0 mm 1 mps 747 mmHg 33%
    13:00 +35°C° 0 mm 1 mps 746 mmHg 29%
    14:00 +36°C° 0 mm 1 mps 746 mmHg 28%
    15:00 +36°C° 0 mm 1 mps 746 mmHg 26%
    16:00 +36°C° 0 mm 1 mps 745 mmHg 25%
    17:00 +36°C° 0 mm 2 mps 745 mmHg 29%
    18:00 +34°C° 0 mm 2 mps 746 mmHg 33%
    19:00 +32°C° 0 mm 2 mps 746 mmHg 36%
    20:00 +30°C° 0 mm 3 mps 746 mmHg 42%
    21:00 +28°C° 0 mm 3 mps 746 mmHg 48%
    22:00 +27°C° 0 mm 4 mps 746 mmHg 54%
    23:00 +26°C° 0 mm 3 mps 746 mmHg 58%

    19 December, Wednesday

    Time Temperature Precipitation Wind Pressure Humidity
    00:00 +25°C° 0 mm 3 mps 745 mmHg 63%
    01:00 +24°C° 0 mm 2 mps 745 mmHg 67%
    02:00 +24°C° 0 mm 3 mps 745 mmHg 68%
    03:00 +24°C° 0 mm 3 mps 744 mmHg 69%
    04:00 +22°C° 0 mm 3 mps 744 mmHg 70%
    05:00 +25°C° 0 mm 3 mps 744 mmHg 66%
    06:00 +26°C° 0 mm 4 mps 744 mmHg 62%
    07:00 +27°C° 0 mm 4 mps 744 mmHg 58%
    08:00 +29°C° 0 mm 5 mps 743 mmHg 52%
    09:00 +33°C° 0 mm 5 mps 743 mmHg 45%
    10:00 +36°C° 0 mm 5 mps 742 mmHg 39%
    11:00 +39°C° 0 mm 6 mps 742 mmHg 32%
    12:00 +43°C° 0 mm 7 mps 741 mmHg 25%
    13:00 +46°C° 0 mm 7 mps 740 mmHg 18%
    14:00 +45°C° 0 mm 7 mps 739 mmHg 17%
    15:00 +45°C° 0 mm 7 mps 738 mmHg 17%
    16:00 +45°C° 0 mm 8 mps 737 mmHg 16%
    17:00 +43°C° 0 mm 7 mps 738 mmHg 18%
    18:00 +40°C° 0 mm 7 mps 738 mmHg 21%
    19:00 +38°C° 0 mm 7 mps 738 mmHg 23%
    20:00 +34°C° 0 mm 6 mps 739 mmHg 28%
    21:00 +32°C° 0 mm 6 mps 740 mmHg 33%
    22:00 +28°C° 0 mm 5 mps 741 mmHg 37%
    23:00 +27°C° 0 mm 5 mps 741 mmHg 44%
    Show more